Weather observations for the past three days for
Tyndall Air Force Base
Imperial (Metric)
Date Time (cdt) Wind (mph) Vis. (mi.) Weather Sky Cond. Temperature (ºF) Relative Humidity Wind Chill (°F) Heat Index (°F) Pressure Precipitation (in)
Air Dwpt 6 hour altimeter (in) sea level (mb) 1 hr 3 hr 6 hr
Max. Min.
24 09:55 SW 10 10.00 Light Rain BKN022 BKN090 81.5 75.7 83% 88 30.14 1020.9
24 08:55 SE 6 6.00 Light Drizzle SCT030 BKN110 84.7 78.3 81% 96 30.14 1020.9
24 07:55 E 6 10.00 Mostly Cloudy SCT030 BKN110 83.7 77.9 83% 94 30.13 1020.6
24 06:55 E 8 10.00 Mostly Cloudy SCT030 BKN100 79.5 75.2 82.6 78.3 87% 84 30.11 1019.9
24 05:55 Calm 10.00 Fair CLR 79.2 75.2 88% 83 30.12 1020.3
24 04:55 E 5 10.00 Light Drizzle FEW060 78.8 73.6 84% 82 30.11 1019.9
24 03:55 Calm 10.00 Fair CLR 79.7 76.8 91% 85 30.11 1019.9
24 02:55 E 3 10.00 Fair CLR 80.1 76.8 90% 86 30.11 1019.9
24 01:55 Calm 10.00 Light Drizzle FEW021 SCT028 SCT038 BKN075 OVC090 79.3 75.7 89% 84 30.12 1020.3
24 00:55 Calm 10.00 Mostly Cloudy FEW028 SCT039 SCT060 SCT075 BKN095 82.6 77.9 88 81 86% 92 30.11 1019.9
23 23:55 Calm 10.00 A Few Clouds FEW027 81.1 73.9 79% 87 30.13 1020.6
23 22:55 Calm 10.00 Thunderstorm Light Rain FEW024 SCT029 BKN047 BKN065 BKN090 83.7 75.9 78% 92 30.13 1020.6
23 21:55 Calm 10.00 Mostly Cloudy SCT025 BKN038 BKN060 84.6 77.2 79% 95 30.12 1020.3
23 20:55 SE 3 10.00 Fair CLR 83.7 75.9 78% 92 30.1 1019.6
23 19:55 S 3 10.00 Fair CLR 86.7 77 73% 98 30.09 1019.2
23 18:55 S 5 10.00 Fair CLR 87.8 76.3 93 87.6 69% 99 30.06 1018.2
23 17:55 S 9 10.00 Mostly Cloudy FEW030 BKN170 89.6 75.7 64% 101 30.06 1018.2
23 16:55 S 7 10.00 Partly Cloudy FEW030 SCT170 90.7 75.7 62% 102 30.06 1018.2
23 15:56 S 8 10.00 Mostly Cloudy FEW030 BKN170 91.2 75.4 60% 103 30.05 1017.9
23 14:55 SE 8 10.00 Partly Cloudy FEW030 SCT170 90.9 75.9 62% 103 30.07 1018.6
23 13:55 S 8 10.00 Partly Cloudy FEW030 SCT150 91.2 70.5 51% 97 30.08 1018.9
23 12:55 SW 12 10.00 A Few Clouds FEW030 91.4 75.4 60% 103 30.08 1018.9
23 11:56 SW 6 10.00 A Few Clouds FEW030 91.2 72.1 54% 99 30.1 1019.6
23 10:55 SW 7 10.00 Partly Cloudy SCT029 88 74.1 64% 97 30.1 1019.6
23 09:55 Calm 10.00 Partly Cloudy SCT025 89.1 77 68% 102 30.09 1019.2
23 08:55 E 6 10.00 Partly Cloudy SCT022 87.8 76.6 70% 99 30.09 1019.2
23 07:57 E 5 10.00 Fair CLR 84.4 77.9 81% 95 30.08 1017.3
23 06:55 Calm 10.00 Fair CLR 81.7 77.4 81.7 77.2 87% 90 30.07 1018.6
23 05:55 Calm 10.00 Fair CLR 79 75.7 90% 83 30.06 1018.2
23 04:55 SE 5 10.00 Fair CLR 78.3 75.4 91% 81 30.05 1017.9
23 03:55 Calm 10.00 Fair CLR 78.6 74.7 88% 82 30.04 1017.5
23 02:55 SE 3 10.00 Fair CLR 77.2 74.3 91% 79 30.04 1017.5
23 01:55 Calm 10.00 Fair CLR 79.2 75.9 90% 83 30.04 1017.5
23 00:55 Calm 10.00 Fair CLR 79.7 73.9 86.9 78.6 83% 84 30.04 1017.5
22 23:55 Calm 10.00 Fair CLR 80.2 74.5 83% 85 30.04 1017.5
22 22:55 Calm 10.00 Fair CLR 81.3 74.8 81% 87 30.05 1017.9
22 21:55 Calm 10.00 Fair CLR 80.8 75 83% 86 30.04 1017.5
22 20:55 Calm 10.00 A Few Clouds FEW033 85.1 74.1 70% 93 30.04 1017.5
22 19:55 Calm 10.00 Fair CLR 85.5 74.5 70% 94 30.02 1016.9
22 18:55 S 5 10.00 Fair CLR 86.9 74.1 90 86.7 66% 95 29.99 1015.9
22 17:55 SW 7 10.00 A Few Clouds FEW032 88.3 74.5 64% 98 29.98 1015.5
22 16:55 E 6 10.00 Partly Cloudy SCT030 SCT150 87.3 73.6 64% 95 29.99 1015.9
22 15:55 SW 7 10.00 Partly Cloudy FEW030 SCT150 88.2 75.2 66% 98 30 1016.2
22 14:55 SW 8 10.00 Partly Cloudy FEW030 SCT150 89.1 77.5 69% 102 30.02 1016.9
22 13:55 SW 8 0.00 Fair SCT030 SCT180 CLR 89.4 75 63% 100 30.02 1016.9
22 12:55 W 7 10.00 Partly Cloudy FEW030 SCT150 89.4 74.1 90.5 81 61% 99 30.04 1017.5
22 11:55 W 5 10.00 Mostly Cloudy SCT030 BKN150 88.2 74.3 64% 97 30.05 1017.9
22 10:55 Calm 10.00 Mostly Cloudy BKN180 87.1 74.7 67% 96 30.05 1017.9
22 09:55 W 5 10.00 Mostly Cloudy SCT027 BKN180 86.2 73.9 67% 94 30.05 1017.9
22 08:55 Calm 10.00 Mostly Cloudy BKN024 86 75.4 71% 95 30.05 1017.9
22 07:55 Calm 10.00 A Few Clouds FEW210 85.1 76.3 75% 95 30.03 1017.2
22 06:55 Calm 10.00 Partly Cloudy SCT200 80.8 76.5 80.8 77.4 87% 87 30.01 1016.5
22 05:55 Calm 10.00 Fair CLR 78.1 74.5 89% 81 30 1016.2
22 04:55 Calm 10.00 Fair CLR 78.3 73.9 87% 81 29.99 1015.9
22 03:55 Calm 10.00 Fair CLR 78.1 74.1 88% 81 29.99 1015.9
22 02:55 Calm 10.00 Fair CLR 79.3 75 87% 84 30 1016.2
22 01:55 Calm 10.00 Fair CLR 78.3 74.7 89% 81 30.01 1016.5
22 00:55 Calm 10.00 Fair CLR 79.2 74.8 86.2 79.2 87% 83 30.04 1017.5
21 23:55 Calm 10.00 Fair CLR 80.1 75 85% 85 30.05 1017.9
21 22:55 Calm 10.00 Fair CLR 81.9 75.4 81% 89 30.06 1018.2
21 21:55 Calm 10.00 Fair CLR 81.7 75.2 81% 88 30.06 1018.2
21 20:55 Calm 10.00 Fair CLR 81.7 75.2 81% 88 30.05 1017.9
21 19:55 W 6 10.00 Fair CLR 84.4 73.4 70% 91 30.03 1017.2
21 18:55 W 7 10.00 Fair CLR 86.2 71.6 88.9 83.5 62% 92 30 1016.2
21 17:55 Calm 10.00 A Few Clouds FEW100 87.6 70.3 57% 93 29.99 1015.9
21 16:55 SW 5 10.00 Partly Cloudy FEW025 SCT100 88.3 71.6 58% 95 29.99 1015.9
21 15:55 W 6 10.00 Partly Cloudy FEW025 SCT100 88.2 73.9 63% 97 30.01 1016.5
21 14:55 SW 3 10.00 Partly Cloudy FEW025 SCT100 88.7 73.9 62% 98 30.01 1016.5
21 13:55 NE 3 10.00 Partly Cloudy SCT025 SCT100 84.7 74.3 71% 92 30.02 1016.9
21 12:55 NW 13 10.00 Light Drizzle BKN026 83.8 74.1 90.5 78.6 73% 91 30.06 1018.2
21 11:55 SW 8 10.00 Thunderstorm in Vicinity FEW027 88 75 66% 98 30.06 1018.2
21 10:55 SW 8 10.00 A Few Clouds FEW022 88 76.5 69% 99 30.06 1018.2
Date Time (cdt) Wind (mph) Vis. (mi.) Weather Sky Cond. Air Dwpt Max. Min. Relative Humidity Wind Chill (°F) Heat Index (°F) altimeter (in) sea level (mb) 1 hr 3 hr 6 hr
6 hour
Temperature (ºF) Pressure Precipitation (in)